�������l�o���
Date,Time,MP-1(��Sv/h),MP-2(��Sv/h),MP-3(��Sv/h),MP-4(��Sv/h),MP-5(��Sv/h),MP-6(��Sv/h),MP-7(��Sv/h),MP-8(��Sv/h),����,����(m/s),���J
2018/02/10,00:00,0.877,1.460,0.912,1.684,1.176,0.484,0.858,0.829,�쐼,1.9,��
2018/02/10,00:10,0.876,1.463,0.911,1.681,1.177,0.483,0.858,0.829,�쐼,2.6,��
2018/02/10,00:20,0.877,1.464,0.913,1.687,1.175,0.483,0.858,0.830,��쐼,3.8,��
2018/02/10,00:30,0.875,1.463,0.912,1.684,1.176,0.482,0.858,0.829,��쐼,5.0,��
2018/02/10,00:40,0.876,1.463,0.914,1.683,1.174,0.483,0.859,0.830,��쐼,3.3,��
2018/02/10,00:50,0.875,1.462,0.912,1.682,1.176,0.481,0.858,0.830,��쐼,2.3,��
2018/02/10,01:00,0.876,1.461,0.911,1.683,1.172,0.482,0.860,0.830,��쐼,2.0,��
2018/02/10,01:10,0.876,1.462,0.911,1.686,1.174,0.483,0.859,0.830,��쐼,2.6,��
2018/02/10,01:20,0.877,1.462,0.911,1.682,1.177,0.483,0.860,0.830,��쐼,3.2,��
2018/02/10,01:30,0.876,1.462,0.911,1.682,1.176,0.482,0.859,0.830,��쐼,3.4,��
2018/02/10,01:40,0.875,1.460,0.914,1.688,1.177,0.486,0.859,0.831,��쐼,3.0,��
2018/02/10,01:50,0.876,1.460,0.910,1.684,1.177,0.482,0.860,0.830,��쐼,3.4,��
2018/02/10,02:00,0.874,1.463,0.913,1.685,1.175,0.483,0.859,0.830,��,4.0,��
2018/02/10,02:10,0.875,1.461,0.912,1.685,1.175,0.484,0.860,0.829,��쐼,3.9,��
2018/02/10,02:20,0.875,1.461,0.910,1.683,1.174,0.483,0.858,0.830,��쐼,4.2,��
2018/02/10,02:30,0.876,1.462,0.911,1.683,1.174,0.483,0.858,0.829,��쐼,3.9,��
2018/02/10,02:40,0.876,1.461,0.911,1.683,1.176,0.483,0.860,0.830,��쐼,3.2,��
2018/02/10,02:50,0.876,1.464,0.912,1.681,1.172,0.484,0.857,0.831,�쐼,2.6,��
2018/02/10,03:00,0.876,1.462,0.912,1.686,1.176,0.484,0.859,0.831,�쐼,3.7,��
2018/02/10,03:10,0.876,1.461,0.912,1.684,1.175,0.482,0.859,0.831,�쐼,3.4,��
2018/02/10,03:20,0.876,1.463,0.912,1.685,1.175,0.484,0.860,0.829,�쐼,3.0,��
2018/02/10,03:30,0.876,1.462,0.910,1.684,1.177,0.484,0.859,0.830,�쐼,2.9,��
2018/02/10,03:40,0.876,1.464,0.912,1.685,1.175,0.483,0.859,0.829,�쐼,3.1,��
2018/02/10,03:50,0.876,1.460,0.911,1.684,1.175,0.483,0.859,0.830,�쐼,3.3,��
2018/02/10,04:00,0.877,1.463,0.911,1.684,1.175,0.483,0.857,0.831,�쐼,2.3,��
2018/02/10,04:10,0.877,1.458,0.911,1.684,1.174,0.483,0.858,0.831,��,1.2,��
2018/02/10,04:20,0.877,1.460,0.912,1.684,1.176,0.484,0.860,0.828,��쐼,1.5,��
2018/02/10,04:30,0.876,1.460,0.913,1.683,1.176,0.481,0.859,0.831,��쐼,1.7,��
2018/02/10,04:40,0.876,1.460,0.912,1.684,1.178,0.483,0.860,0.831,��쐼,2.3,��
2018/02/10,04:50,0.874,1.460,0.911,1.684,1.174,0.483,0.859,0.830,��쐼,3.1,��
2018/02/10,05:00,0.874,1.461,0.912,1.684,1.175,0.486,0.860,0.831,��쐼,3.8,��
2018/02/10,05:10,0.877,1.463,0.911,1.683,1.175,0.484,0.860,0.831,��쐼,4.0,��
2018/02/10,05:20,0.875,1.461,0.911,1.685,1.174,0.482,0.859,0.830,��,5.2,��
2018/02/10,05:30,0.876,1.462,0.912,1.684,1.176,0.483,0.860,0.831,��,5.1,��
2018/02/10,05:40,0.875,1.462,0.911,1.687,1.173,0.485,0.857,0.830,��쐼,5.3,��
2018/02/10,05:50,0.875,1.463,0.913,1.685,1.177,0.485,0.859,0.832,��쐼,4.6,��
2018/02/10,06:00,0.875,1.462,0.911,1.685,1.172,0.484,0.861,0.829,�쐼,3.9,��
2018/02/10,06:10,0.876,1.461,0.913,1.682,1.177,0.483,0.859,0.829,���쐼,4.3,��
2018/02/10,06:20,0.874,1.462,0.913,1.685,1.174,0.484,0.860,0.831,�쐼,4.4,��
2018/02/10,06:30,0.877,1.461,0.911,1.684,1.173,0.483,0.860,0.831,��쐼,2.0,��
2018/02/10,06:40,0.875,1.463,0.911,1.686,1.174,0.481,0.860,0.831,�쐼,3.8,��
2018/02/10,06:50,0.876,1.458,0.913,1.683,1.174,0.484,0.861,0.830,�쐼,4.8,��
2018/02/10,07:00,0.876,1.461,0.911,1.685,1.177,0.483,0.859,0.829,��쐼,6.5,��
2018/02/10,07:10,0.877,1.463,0.912,1.684,1.174,0.484,0.860,0.831,��쐼,5.9,��
2018/02/10,07:20,0.877,1.462,0.913,1.682,1.175,0.483,0.862,0.831,��쐼,5.7,��
2018/02/10,07:30,0.877,1.462,0.914,1.683,1.176,0.483,0.860,0.831,��쐼,6.7,��
2018/02/10,07:40,0.878,1.463,0.913,1.688,1.177,0.483,0.863,0.831,��쐼,6.9,��
2018/02/10,07:50,0.878,1.461,0.914,1.687,1.177,0.484,0.862,0.832,��쐼,7.3,��
2018/02/10,08:00,0.876,1.462,0.913,1.687,1.175,0.485,0.861,0.831,��쐼,8.0,��
2018/02/10,08:10,0.878,1.462,0.914,1.688,1.174,0.485,0.862,0.831,��쐼,7.9,��
2018/02/10,08:20,0.879,1.463,0.914,1.687,1.177,0.484,0.863,0.833,��쐼,8.0,��
2018/02/10,08:30,0.878,1.462,0.916,1.685,1.176,0.484,0.861,0.831,��쐼,9.0,��
2018/02/10,08:40,0.882,1.458,0.916,1.687,1.178,0.485,0.864,0.831,��쐼,7.1,��
2018/02/10,08:50,0.878,1.463,0.918,1.686,1.179,0.485,0.863,0.833,��쐼,6.4,��
2018/02/10,09:00,0.882,1.462,0.916,1.687,1.179,0.485,0.862,0.831,��쐼,7.2,��
2018/02/10,09:10,0.881,1.461,0.916,1.687,1.177,0.486,0.862,0.831,��쐼,6.4,��
2018/02/10,09:20,0.880,1.463,0.918,1.690,1.181,0.485,0.863,0.832,��쐼,6.9,��
2018/02/10,09:30,0.882,1.464,0.918,1.688,1.178,0.486,0.863,0.833,�쐼,7.0,��
2018/02/10,09:40,0.882,1.463,0.918,1.692,1.178,0.486,0.860,0.834,��쐼,6.2,��
2018/02/10,09:50,0.881,1.467,0.918,1.687,1.180,0.488,0.860,0.834,��쐼,5.3,��
2018/02/10,10:00,0.881,1.464,0.918,1.689,1.181,0.486,0.862,0.833,��쐼,4.7,��
2018/02/10,10:10,0.883,1.464,0.920,1.690,1.179,0.488,0.862,0.833,�쐼,4.1,��
2018/02/10,10:20,0.883,1.465,0.909,1.689,1.179,0.488,0.861,0.836,��쐼,3.8,��
2018/02/10,10:30,0.884,1.464,0.910,1.692,1.183,0.488,0.860,0.834,��쓌,2.6,��
2018/02/10,10:40,0.883,1.465,0.911,1.693,1.182,0.486,0.861,0.834,��쓌,3.6,��
2018/02/10,10:50,0.886,1.463,0.911,1.691,1.183,0.487,0.863,0.835,��,5.0,��
2018/02/10,11:00,0.883,1.466,0.911,1.693,1.183,0.486,0.862,0.835,��,6.2,��
2018/02/10,11:10,0.882,1.463,0.914,1.692,1.183,0.486,0.861,0.834,��,6.7,��
2018/02/10,11:20,0.884,1.463,0.910,1.693,1.185,0.486,0.863,0.833,��,7.8,��
2018/02/10,11:30,0.882,1.466,0.910,1.695,1.181,0.485,0.863,0.834,��쓌,8.4,��
2018/02/10,11:40,0.882,1.468,0.909,1.694,1.180,0.488,0.862,0.832,��,8.8,��
2018/02/10,11:50,0.882,1.463,0.913,1.694,1.181,0.487,0.859,0.834,��쓌,8.0,��
2018/02/10,12:00,0.883,1.462,0.912,1.690,1.179,0.488,0.862,0.833,��,8.7,��
2018/02/10,12:10,0.882,1.464,0.910,1.694,1.180,0.488,0.862,0.835,��,10.0,��
2018/02/10,12:20,0.883,1.463,0.910,1.693,1.181,0.488,0.862,0.833,��쓌,13.0,��
2018/02/10,12:30,0.883,1.468,0.913,1.697,1.179,0.488,0.862,0.833,��쓌,11.3,��
2018/02/10,12:40,0.884,1.464,0.920,1.698,1.181,0.489,0.864,0.833,��,10.9,��
2018/02/10,12:50,0.886,1.466,0.921,1.694,1.180,0.490,0.863,0.834,��쓌,11.4,��
2018/02/10,13:00,0.887,1.467,0.920,1.699,1.181,0.488,0.864,0.834,��쓌,10.2,��
2018/02/10,13:10,0.888,1.465,0.920,1.697,1.180,0.490,0.864,0.834,��쓌,10.3,��
2018/02/10,13:20,0.885,1.467,0.921,1.695,1.181,0.489,0.863,0.833,��쓌,8.8,��
2018/02/10,13:30,0.885,1.469,0.920,1.698,1.186,0.488,0.865,0.833,��,8.5,��
2018/02/10,13:40,0.885,1.468,0.918,1.697,1.182,0.489,0.863,0.834,��쓌,8.8,��
2018/02/10,13:50,0.885,1.469,0.920,1.698,1.184,0.490,0.863,0.834,��쓌,5.5,��
2018/02/10,14:00,0.882,1.465,0.920,1.700,1.184,0.489,0.865,0.831,��,5.3,��
2018/02/10,14:10,0.885,1.469,0.922,1.702,1.186,0.489,0.863,0.831,��쓌,10.0,��
2018/02/10,14:20,0.885,1.468,0.919,1.698,1.185,0.490,0.864,0.832,��쓌,10.5,��
2018/02/10,14:30,0.885,1.469,0.917,1.699,1.183,0.490,0.862,0.832,��쓌,11.3,��
2018/02/10,14:40,0.885,1.467,0.919,1.699,1.182,0.489,0.864,0.831,��쓌,12.0,��
2018/02/10,14:50,0.886,1.468,0.922,1.701,1.184,0.491,0.863,0.831,��쓌,10.9,��
2018/02/10,15:00,0.886,1.470,0.923,1.701,1.184,0.490,0.863,0.834,��쓌,9.4,��
2018/02/10,15:10,0.887,1.474,0.921,1.700,1.184,0.490,0.864,0.834,��,8.3,��
2018/02/10,15:20,0.887,1.473,0.923,1.701,1.183,0.489,0.866,0.834,��,6.3,��
2018/02/10,15:30,0.887,1.474,0.924,1.701,1.183,0.489,0.865,0.834,��,4.5,��
2018/02/10,15:40,0.886,1.473,0.923,1.701,1.187,0.491,0.864,0.835,��,4.9,��
2018/02/10,15:50,0.889,1.475,0.920,1.704,1.187,0.490,0.865,0.837,��쓌,6.3,��
2018/02/10,16:00,0.885,1.472,0.921,1.701,1.187,0.491,0.864,0.833,��쓌,7.3,��
2018/02/10,16:10,0.888,1.476,0.922,1.703,1.188,0.490,0.864,0.834,��쓌,8.0,��
2018/02/10,16:20,0.886,1.471,0.921,1.701,1.189,0.491,0.868,0.835,��,7.6,��
2018/02/10,16:30,0.887,1.476,0.923,1.704,1.187,0.490,0.864,0.833,��,8.1,��
2018/02/10,16:40,0.887,1.475,0.921,1.703,1.188,0.489,0.864,0.835,��,7.6,��
2018/02/10,16:50,0.884,1.477,0.923,1.701,1.186,0.491,0.867,0.834,��,8.6,��
2018/02/10,17:00,0.885,1.473,0.922,1.705,1.189,0.490,0.866,0.836,��,8.4,��
2018/02/10,17:10,0.886,1.476,0.921,1.704,1.185,0.490,0.866,0.834,��,8.2,��
2018/02/10,17:20,0.886,1.474,0.925,1.705,1.188,0.490,0.866,0.834,��,7.8,��
2018/02/10,17:30,0.885,1.472,0.923,1.703,1.188,0.491,0.867,0.836,��,8.2,��
2018/02/10,17:40,0.885,1.474,0.922,1.704,1.186,0.492,0.866,0.834,��,7.2,��
2018/02/10,17:50,0.888,1.476,0.921,1.706,1.189,0.491,0.865,0.835,��,6.7,��
2018/02/10,18:00,0.886,1.475,0.921,1.705,1.187,0.489,0.867,0.835,��쐼,7.0,��
2018/02/10,18:10,0.885,1.473,0.924,1.704,1.187,0.490,0.866,0.834,��쐼,8.0,��
2018/02/10,18:20,0.885,1.475,0.923,1.704,1.189,0.490,0.866,0.833,��쐼,7.4,��
2018/02/10,18:30,0.886,1.475,0.920,1.705,1.188,0.490,0.866,0.835,�쐼,6.4,��
2018/02/10,18:40,0.886,1.473,0.922,1.709,1.186,0.490,0.868,0.835,�쐼,7.3,��
2018/02/10,18:50,0.888,1.475,0.923,1.705,1.186,0.491,0.867,0.833,�쐼,7.8,��
2018/02/10,19:00,0.886,1.473,0.923,1.707,1.189,0.492,0.868,0.836,�쐼,5.6,��
2018/02/10,19:10,0.887,1.474,0.923,1.705,1.189,0.490,0.866,0.834,�쐼,5.4,��
2018/02/10,19:20,0.885,1.473,0.922,1.702,1.185,0.489,0.867,0.833,�쐼,6.1,��
2018/02/10,19:30,0.886,1.472,0.923,1.706,1.186,0.491,0.867,0.834,�쐼,6.6,��
2018/02/10,19:40,0.888,1.474,0.921,1.704,1.189,0.489,0.868,0.835,�쐼,6.6,��
2018/02/10,19:50,0.884,1.474,0.924,1.707,1.192,0.490,0.866,0.835,�쐼,6.0,��
2018/02/10,20:00,0.886,1.473,0.921,1.704,1.190,0.490,0.869,0.836,��쐼,5.7,��
2018/02/10,20:10,0.886,1.474,0.925,1.706,1.189,0.490,0.866,0.833,��,2.9,��
2018/02/10,20:20,0.885,1.473,0.921,1.704,1.185,0.490,0.865,0.835,��,3.2,��
2018/02/10,20:30,0.885,1.473,0.922,1.706,1.186,0.491,0.867,0.835,��,2.6,��
2018/02/10,20:40,0.886,1.471,0.922,1.707,1.191,0.490,0.866,0.833,��쓌,2.2,��
2018/02/10,20:50,0.885,1.473,0.923,1.705,1.189,0.490,0.867,0.836,��쓌,1.7,��
2018/02/10,21:00,0.885,1.471,0.921,1.706,1.186,0.491,0.867,0.835,��쓌,1.2,��
2018/02/10,21:10,0.887,1.473,0.923,1.705,1.188,0.490,0.867,0.836,��쓌,0.9,��
2018/02/10,21:20,0.886,1.474,0.923,1.705,1.188,0.490,0.868,0.835,��쐼,1.4,��
2018/02/10,21:30,0.888,1.472,0.922,1.705,1.187,0.490,0.866,0.834,��쐼,1.7,��
2018/02/10,21:40,0.887,1.472,0.921,1.707,1.188,0.489,0.866,0.837,��,3.0,��
2018/02/10,21:50,0.886,1.472,0.925,1.707,1.188,0.490,0.865,0.834,��쐼,2.3,��
2018/02/10,22:00,0.886,1.472,0.924,1.705,1.188,0.490,0.866,0.834,��쐼,2.3,��
2018/02/10,22:10,0.887,1.472,0.923,1.707,1.189,0.489,0.866,0.835,��,3.3,��
2018/02/10,22:20,0.888,1.470,0.922,1.708,1.189,0.491,0.866,0.836,��,4.6,�L
2018/02/10,22:30,0.887,1.471,0.923,1.707,1.190,0.489,0.867,0.834,��,5.2,�L
2018/02/10,22:40,0.887,1.474,0.925,1.712,1.187,0.490,0.866,0.832,��,7.0,�L
2018/02/10,22:50,0.886,1.471,0.924,1.708,1.186,0.492,0.865,0.834,��쐼,8.0,�L
2018/02/10,23:00,0.888,1.471,0.924,1.708,1.188,0.489,0.865,0.836,��,7.7,�L
2018/02/10,23:10,0.886,1.473,0.923,1.708,1.190,0.492,0.867,0.834,��,7.5,�L
2018/02/10,23:20,0.889,1.475,0.923,1.706,1.188,0.490,0.868,0.836,��,6.3,�L
2018/02/10,23:30,0.887,1.475,0.924,1.708,1.189,0.492,0.866,0.835,��,6.1,�L
2018/02/10,23:40,0.887,1.471,0.923,1.708,1.189,0.490,0.868,0.836,��쐼,5.7,��
2018/02/10,23:50,0.889,1.470,0.923,1.709,1.188,0.492,0.868,0.833,��쐼,5.7,�L
